Погода в Туркестане

Хотите узнать прогноз погоды в Туркестане? Тогда Вам сюда: Погода в Туркестане

Поиск расширенной информации на нашем сайте:

Полезная информация:

Новости сайта



02.01.2020
Опубликован Долгосрочный прогноз погоды по городам России и ближнего зарубежья на январь 2020 года.
Карты: Прогноз на январь и февраль 2020 года, Сравнение прогнозируемой аномалии приземной температуры воздуха на январь 2020 года по разным моделям.




Погода в Туркестане - сегодня

Время (UTC), дата Ветер
(°,м/с) 
Видим.   Явления Облачность Т
(°С)
Тd
(°С)
f(%) Тe
(°С)
Pmin
(гПа)
dP
(гПа)
Po
(мм)
O2
(г/м3)
Тmin Tmax R s Состояние
почвы
12 22.10.21 240 (ЮЗ) 20000 м    6/3 600 м кучево-дожд., средняя, верхняя 
[Cb cap|Ac As|Ci sp]
+8.6 -5.7 36 +8  1034.7  757  296           
15 22.10.21 тихо ()   н/о    8/4 600 м кучево-дожд., средняя 
[Cb cap|Ac As]
+6.6 -2.5 52 +7  1036.3  1.4  758  299    +10.1       
18 22.10.21 290 (З) н/о    8/5 600 м кучево-дожд., средняя 
[Cb cap|Ac As]
+4.7 -1.7 63 +6  1036.8  0.3  758  301    +10.1       
21 22.10.21 070 (В) н/о    10/8 600 м кучево-дожд., средняя 
[Cb cap|Ac As]
+4.9 +0.2 72 +6  1035.9  -0.9  758  300           
00 23.10.21 110 (В) н/о    5/0 средняя 
[Ac As]
+3.2 +1.1 86 +3  1035.9  -0.2  758  302           
03 23.10.21 080 (В) 10 км    8/6 600 м кучево-дожд., средняя 
[Cb cap|Ac As]
+4.3 -1.2 67 +4  1035.8  758  301           
06 23.10.21 080 (В) 20000 м    3/0 верхняя 
[Ci fib]
+9.6 -5.6 34 +10  1034.5  -0.7  757  295  +2.3         
09 23.10.21 050 (СВ) 20000 м    6/0 верхняя 
[Ci fib]
+12.6 -5 29 +14  1032.3  -2  755  292           
12 23.10.21 350 (С) 20000 м    4/0 верхняя 
[Ci fib]
+12.5 -3.6 32 +13  1030.9  -1.2  755  291           
15 23.10.21 350 (С) н/о    ясно 
+8.2 -2.3 47 +8  1031.2  -0.1  754  295    +14.4       
18 23.10.21 340 (С) н/о    ясно 
+5.3 -0.9 64 +6  1029.9  -1.5  753  298    +14.4       
21 23.10.21 тихо ()   н/о    ясно 
+3.2 +0.3 81 +3  1028.1  -2  752  299           
00 24.10.21 040 (СВ) н/о    ясно 
+2.7 +1.7 93 +3  1026.7  -1.3  751  299           
03 24.10.21 040 (СВ) 50000 м    3/0 верхняя 
[Ci fib]
+5.5 +2.3 80 +5  1025.3  -1.2  750  296           
06 24.10.21 080 (В) 20000 м    ясно 
+17 -3.5 24 +17  1022.4  -1.8  749  284  +2.3         
09 24.10.21 060 (СВ) 20000 м    ясно 
+21.8 -8.8 12 +22  1019  -2.9  746  279           
12 24.10.21 090 (В) 20000 м    ясно 
+18.6 -8.7 15 +19  1018.2  -1.1  746  282           
15 24.10.21 080 (В) н/о    ясно 
+13.8 -4.3 28 +15  1018.3  -0.3  745  286    +22.1       
18 24.10.21 100 (В) н/о    ясно 
+12.9 -2.7 34 +12  1016.9  -1.4  744  287    +22.1       
21 24.10.21 080 (В) н/о    ясно 
+11.4 -3 36 +11  1015.6  -1.5  743  288           
00 25.10.21 тихо ()   н/о    ясно 
+6.1 -2.1 56 +6  1015.9  -0.2  743  293           
03 25.10.21 130 (ЮВ) 20000 м    ясно 
+5.9 -2 57 +6  1016.5  0.5  743  293           
06 25.10.21 130 (ЮВ) 10 км    ясно 
+12.9 +0.2 42 +13  1016.5  0.7  744  286  +3.3         
09 25.10.21 170 (Ю) 10 км    ясно 
+18.3 -1.9 25 +19  1014.7  -1.4  743  281           
12 25.10.21 130 (ЮВ) 10 км    ясно 
+17.5 -1.5 27 +18  1014.5  -0.2  743  281           
Время (UTC), дата Ветер
(°,м/с) 
Видим.   Явления Облачность Т
(°С)
Тd
(°С)
f(%) Тe
(°С)
Pmin
(гПа)
dP
(гПа)
Po
(мм)
O2
(г/м3)
Тmin Tmax R s Состояние
почвы

Для получения пояснительной информации подведите курсор к названию столбца.

ПОГОДА в Туркестане - архив

Всё, что Вы хотите узнать о погоде в Туркестане - удобно и подробно!

Выберите нужную дату (начиная с 1 января 2019* года) и нажмите кнопку "Найти".
Будут отображены архивные сводки погоды по пункту Туркестан, начиная с указанной даты.


Отображать данные в формате CSV (для использования в таблицах Excel)


Внимание! Наш архив погоды предназначен исключительно для личного некоммерческого использования в познавательных целях. Если Вам необходимы официальные справки о состоянии погоды (для производственных, юридических, коммерческих и т.п. целей), обращайтесь в органы Росгидромета.

*Примечание: данная дата относится к архиву по метеостанциям СССР (Россия, СНГ, Балтия).
Архив по метеостанциям Зарубежной Европы и Азии (кроме Китая) хранится 10 дней, по другим регионам земного шара (Китай, Африка, Америка, Австралия, Океания) - 1 день.

Туркестан - район местоположения метеостанции


Название, широта, долгота, высота метеостанции:
Туркестан 43.3°ш. 68.2°д. 207 м над ур. моря [Казахстан]

Дополнительная информация

В oтличие oт бoльшинства пoгoдных сайтoв мы публикуем пoдрoбную метеoинфoрмацию в детальнoм прoфессиoнальнoм фoрмате.

Характеристики температуры и влажнoсти вoздуха измеряются на высoте 2 м в тени вдали oт зданий и деревьев.
Скoрoсть ветра измеряется на высoте 10 м (на урoвне рoста челoвека скoрoсть ветра ниже в 1.5-2 раза). Если метеoстанция нахoдится в гoрoде или в лесу, тo скoрoсть ветра занижена на 2-4 м/с пo сравнению с oткрытым местoм. Скoрoсть ветра над акватoриями крупных рек и oзёр, а также на вершинах хoлмoв на 2-5 м/с выше, чем в oбычных услoвиях.
Атмoсфернoе давление в разных тoчках местнoсти мoжет значительнo oтличаться oт давления на метеoстанции, в зависимoсти oт услoвий рельефа (при пoдъёме на 10 м давление пoнижается примернo на 1 мм рт.ст.).